Location: Trout Lake
(45.9980°N, 121.5270°W)
Time: 19:27:26
(UTC-08:00)

Cosmos 1140 Rocket - Pass Details

Date: 06 December 2023
Orbit: 743 x 764 km, 74.1° (Epoch: 22 February)

Event Time Altitude Azimuth Distance (km) Brightness Sun altitude
Rises 17:41:10 0° 336° (NNW) 3,215 6.8 -13.4°
Reaches altitude 10° 17:43:34 10° 334° (NNW) 2,283 6.1 -13.7°
Maximum altitude 17:48:41 67° 253° (WSW) 812 3.9 -14.6°
Drops below altitude 10° 17:53:45 10° 171° (S) 2,254 6.0 -15.4°
Sets 17:56:06 0° 169° (SSE) 3,171 6.8 -15.8°
